Location: Unspecified
(38.9820°N, 94.4650°W)
Time: 06:42:36
(UTC-05:00)

Resurs 1-4 Rocket - Visible Passes

Search period start: 24 April 2014 00:00
Search period end: 04 May 2014 00:00
Orbit: 800 x 815 km, 98.3° (Epoch: 23 April)

Date Brightness Start Highest point End Pass type
(mag) Time Alt. Az. Time Alt. Az. Time Alt. Az.
24 Apr 4.9 04:17:37 10° ENE 04:19:29 12° E 04:21:20 10° ESE visible
24 Apr 2.1 05:54:36 10° N 05:59:53 77° WNW 06:05:08 10° SSW visible
25 Apr 2.6 05:30:15 10° NNE 05:35:29 64° ESE 05:40:42 10° S visible
26 Apr 3.5 05:06:08 10° NNE 05:11:01 37° E 05:15:52 10° SSE visible
27 Apr 4.4 04:42:23 10° NE 04:46:27 22° E 04:50:29 10° SE visible
28 Apr 4.8 04:19:32 10° ENE 04:21:48 13° E 04:24:04 10° ESE visible
28 Apr 2.1 05:56:54 10° N 06:02:09 72° WNW 06:07:24 10° SSW visible
29 Apr 2.5 05:32:30 10° NNE 05:37:46 68° ESE 05:43:01 10° S visible
30 Apr 3.4 05:08:21 10° NNE 05:13:18 40° E 05:18:14 10° SSE visible
01 May 4.3 04:44:34 10° NE 04:48:45 24° E 04:52:56 10° SSE visible
02 May 4.8 04:21:31 10° ENE 04:24:07 14° E 04:26:43 10° ESE visible
03 May 2.4 05:34:46 10° NNE 05:40:03 73° ESE 05:45:20 10° S visible
